Vertical_Velocity
1 -12 -7 -6 18 2 -7 10 -10 -1 8 -8 17 -3 -31 10 7 -9 -0 3 -11 -4 21 0 4 0 -6 1 -11 3 2 7 1 7 -0 -0 7 1 -0 2 3 2 -3 -1
3 15 2 -11 8 -2 0 -9 -14 -1 15 -9 51 -5 -9 13 -11 -9 10 8 7 4 9 13 6 -3 -3 4 -2 -3 3 3 6 5 7 -1 0 3 -0 3 3 2 2 0
-7 12 -2 -11 -1 -4 10 -9 1 -14 16 35 2 -10 -36 17 -11 -0 6 0 -2 -5 2 6 8 1 3 1 4 1 -0 2 1 -1 2 4 7 3 1 4 5 0 -5 -1
3 -5 -9 -8 -7 7 -51 41 -8 6 22 -3 13 -12 -2 -5 2 1 0 3 3 2 6 3 11 15 15 -10 -6 -3 -7 -8 1 1 -2 7 3 3 3 -1 -0 8 1 1
8 6 -11 -4 -6 1 -1 11 -3 2 3 37 3 1 1 4 1 -6 -2 -2 4 14 9 -8 -3 -10 -15 -6 -6 3 0 1 4 2 9 7 2 6 9 4 -2 6 5 4
4 -2 1 -7 9 -4 1 -3 3 5 30 15 -3 4 -4 -8 -6 3 -1 3 14 -3 8 6 -19 1 -1 -1 -3 -1 -0 3 -3 7 2 6 3 -2 2 2 0 3 4 3
2 6 -4 1 7 -7 -3 -9 8 -3 4 -23 10 2 4 1 -1 4 13 18 22 31 15 -11 -1 1 3 2 -1 -0 -0 -0 -2 -3 -4 -2 3 1 7 5 -3 -6 -3 4
2 20 1 2 21 18 -5 -15 -30 -8 -4 1 12 -12 -21 11 11 -7 16 8 18 -25 6 -0 -5 1 2 1 6 4 3 4 2 0 -2 0 -2 -4 3 3 2 -1 -2 -0
-14 18 -7 -14 2 1 -15 10 13 5 10 17 -8 5 18 11 -9 0 -19 -8 -12 9 10 1 8 10 9 7 5 3 4 5 6 -1 -7 -4 1 -1 3 2 -3 0 0 4
-0 -1 -12 -3 -2 6 3 -4 10 15 9 3 14 2 -13 -7 -11 -11 -8 -1 -4 -10 -4 -6 4 6 3 3 6 6 7 2 2 2 -2 -6 -3 -1 3 -3 1 -0 0 -0
1 -2 -15 4 37 -5 1 2 0 5 2 -1 4 -7 -2 1 -6 -3 -5 -3 3 4 -1 -1 2 3 3 4 -2 -3 -3 -6 -2 1 -0 1 0 -2 1 1 1 -0 -1 3
-3 -1 -4 -7 25 12 1 -4 -7 4 18 23 12 1 -1 -3 -4 -7 1 2 4 11 12 1 -3 -2 -4 -7 -3 -1 -2 -1 -1 -2 -1 -3 -0 -1 -1 -2 4 -6 2 7
-1 2 2 -4 -7 2 5 26 -1 5 7 6 7 18 17 -0 1 2 82 8 8 7 2 -0 2 3 2 6 1 -0 -0 -0 -2 -5 -2 -2 -1 1 -2 1 -6 -6 -3 6
-5 -1 -7 -3 0 3 -4 3 -5 9 7 6 0 52 5 44 55 5 6 9 17 33 14 11 17 7 2 -1 -2 -2 -5 -2 -3 -2 -0 1 1 -2 -2 -6 -1 2 0 5
-4 -3 -4 -4 -1 7 1 -1 -4 -6 -0 -6 -1 10 8 29 16 27 15 10 -6 11 1 1 0 -2 -3 -5 -5 -6 -3 -5 -3 -3 -2 -3 -0 0 1 1 -0 2 3 6
-4 1 -2 -6 -6 14 -6 3 2 -1 1 -0 -2 0 23 12 -4 -1 -5 45 14 1 -2 -4 -4 -3 2 -1 -3 -3 -1 -2 1 -0 -3 -0 1 1 -1 -3 2 0 -2 3
-4 -0 -3 -2 3 9 3 8 -3 1 3 5 7 6 15 2 -1 -5 -7 -3 -2 -4 -0 -0 -2 -2 1 -6 -3 -2 -3 -1 -3 -6 1 -1 -3 -3 -3 -4 -2 3 2 0
2 3 2 3 -10 9 -9 28 -3 2 -4 17 -3 8 11 10 4 3 -1 -2 3 -4 1 0 -3 -4 -2 -2 -1 -1 -2 -2 -2 1 1 -2 0 -0 -1 -2 -1 1 -2 1
-4 1 1 -3 2 21 21 7 3 -4 14 7 3 5 -4 -1 1 1 -3 -4 -2 1 2 0 -2 -3 -0 -2 0 -1 -1 -2 -3 0 -0 -0 1 -1 1 -1 0 -1 -3 -4
-5 -3 -2 -0 -2 1 3 -5 -1 -4 -5 -1 -3 -4 1 0 -3 -1 0 -2 1 -0 1 -2 -5 -3 -2 -3 -1 -3 -3 -2 0 -1 -3 -5 1 -2 -3 -2 -2 -1 -2 9
-0 -4 -2 -3 -4 1 -3 3 0 1 -2 -1 -2 -3 -2 -1 -1 2 -1 -1 -2 1 -1 -1 -1 -3 -4 -4 -6 -6 -6 -4 -5 -4 -4 -9 0 -6 -4 -3 -6 -7 0 -0
-3 -0 -4 -2 -2 -7 -4 -2 -1 -1 3 -1 -1 0 -5 -3 -2 -2 -0 1 -0 0 0 -2 -2 -1 -4 -4 -3 -4 -2 -3 -5 -4 -2 -7 -6 -3 -3 -2 -4 -4 1 36
-2 -4 -2 2 -1 -2 -0 2 -8 -3 3 -2 -3 -2 -5 -7 -1 -1 -4 -3 -1 -0 -1 -3 -5 -6 -6 -4 -1 -3 -2 -5 -7 -8 -5 -2 -4 -2 1 3 10 14 4 14
-0 -1 -1 -1 -6 -1 1 -2 -2 -3 -3 -4 -2 -4 -0 -2 -3 -4 -4 -3 -4 -5 -6 -5 -5 -5 -5 -4 -2 -3 -5 -6 -5 -4 -3 -7 -2 -2 2 5 8 -0 8 13
0 4 -1 -3 -2 -4 -4 -4 -1 -2 0 0 0 1 1 -1 -7 -4 -6 -4 -3 -4 -3 -3 -3 -3 -2 -3 -3 -1 -5 -5 -5 -7 -4 1 -9 2 3 11 6 19 3 -3
2 1 1 -1 -0 -1 -3 -3 -2 -2 -2 2 -3 -7 0 4 -0 -3 -4 -3 -2 -4 -1 -1 -3 -2 -2 -3 -3 -1 -2 -4 -5 0 -4 -3 5 4 -2 5 11 9 33 26
Height
5640 5636 5625 5621 5612 5600 5597 5597 5592 5611 5634 5637 5629 5635 5659 5662 5669 5681 5691 5700 5708 5715 5723 5724 5727 5729 5733 5742 5746 5747 5749 5751 5758 5762 5766 5767 5768 5768 5770 5773 5772 5772 5773 5773
5623 5613 5599 5592 5588 5578 5570 5566 5569 5581 5600 5612 5606 5613 5635 5643 5651 5665 5677 5687 5697 5704 5708 5713 5717 5721 5724 5729 5735 5738 5741 5744 5748 5751 5755 5757 5756 5759 5761 5764 5764 5764 5764 5764
5598 5600 5585 5579 5576 5569 5563 5556 5553 5555 5577 5584 5587 5598 5617 5628 5638 5649 5658 5669 5678 5687 5694 5700 5705 5710 5715 5719 5724 5729 5732 5736 5739 5742 5745 5748 5749 5750 5751 5754 5755 5755 5755 5755
5590 5580 5575 5572 5567 5558 5552 5545 5537 5541 5556 5565 5580 5588 5600 5615 5626 5635 5645 5658 5667 5675 5682 5686 5691 5697 5700 5705 5713 5717 5720 5722 5725 5729 5733 5736 5739 5742 5745 5743 5743 5745 5746 5747
5584 5576 5568 5564 5558 5550 5543 5533 5530 5536 5548 5564 5571 5579 5595 5604 5614 5626 5639 5650 5658 5663 5666 5670 5676 5682 5689 5695 5700 5703 5710 5713 5715 5721 5724 5728 5730 5732 5735 5737 5736 5736 5738 5739
5581 5574 5565 5560 5555 5543 5534 5530 5531 5534 5545 5550 5564 5576 5590 5598 5614 5623 5633 5642 5650 5651 5656 5661 5667 5674 5678 5684 5688 5692 5695 5701 5705 5709 5714 5717 5719 5723 5726 5727 5729 5728 5729 5730
5577 5573 5563 5554 5548 5539 5532 5531 5532 5539 5546 5555 5568 5573 5589 5600 5609 5617 5627 5634 5637 5641 5644 5653 5661 5666 5669 5673 5677 5681 5684 5688 5693 5697 5702 5702 5705 5711 5715 5717 5719 5719 5720 5721
5571 5572 5562 5554 5549 5545 5542 5540 5544 5549 5554 5560 5567 5575 5589 5595 5600 5609 5615 5617 5624 5618 5639 5643 5649 5655 5661 5664 5667 5672 5675 5679 5684 5686 5689 5691 5693 5697 5702 5708 5710 5711 5711 5711
5568 5569 5562 5555 5552 5550 5551 5551 5554 5548 5556 5563 5569 5576 5580 5587 5593 5599 5603 5610 5613 5624 5630 5635 5640 5647 5651 5655 5658 5661 5664 5669 5674 5676 5678 5681 5683 5686 5690 5695 5698 5699 5701 5702
5568 5563 5560 5552 5553 5554 5556 5556 5557 5554 5560 5563 5568 5572 5576 5583 5589 5596 5603 5608 5611 5619 5624 5630 5633 5638 5642 5644 5645 5648 5652 5656 5659 5662 5664 5668 5669 5672 5677 5683 5687 5687 5688 5691
5566 5562 5559 5557 5553 5555 5556 5557 5558 5559 5561 5564 5568 5571 5576 5580 5584 5590 5595 5599 5604 5609 5614 5617 5620 5625 5630 5634 5637 5639 5642 5642 5642 5647 5651 5655 5657 5659 5664 5670 5673 5674 5676 5681
5566 5563 5559 5557 5556 5559 5558 5557 5558 5559 5562 5563 5565 5572 5574 5577 5581 5584 5586 5591 5596 5601 5606 5611 5616 5620 5622 5625 5628 5630 5632 5633 5632 5636 5637 5641 5645 5648 5653 5657 5660 5662 5665 5669
5567 5563 5561 5560 5560 5559 5558 5559 5560 5561 5563 5564 5566 5570 5569 5575 5579 5581 5572 5586 5594 5598 5602 5606 5610 5613 5617 5619 5622 5622 5623 5623 5624 5626 5626 5631 5634 5637 5641 5644 5647 5651 5655 5658
5564 5562 5561 5562 5560 5557 5556 5556 5558 5558 5561 5563 5565 5566 5571 5574 5573 5579 5582 5586 5591 5594 5596 5597 5601 5606 5610 5613 5614 5614 5615 5614 5615 5616 5618 5621 5623 5626 5629 5632 5636 5640 5643 5646
5562 5563 5562 5561 5559 5556 5556 5557 5559 5560 5561 5563 5565 5565 5567 5568 5572 5573 5581 5582 5585 5590 5591 5596 5600 5603 5605 5605 5606 5607 5607 5607 5607 5607 5609 5610 5612 5615 5618 5621 5626 5629 5632 5636
5559 5561 5562 5561 5559 5557 5555 5557 5557 5559 5561 5561 5565 5566 5569 5568 5569 5572 5575 5572 5577 5584 5587 5590 5592 5594 5595 5597 5597 5598 5599 5600 5599 5600 5600 5600 5602 5605 5607 5611 5614 5617 5621 5625
5554 5557 5559 5559 5558 5557 5556 5557 5557 5558 5560 5562 5563 5565 5567 5567 5568 5570 5574 5574 5577 5580 5582 5585 5586 5588 5590 5591 5591 5591 5592 5591 5590 5591 5590 5591 5592 5594 5596 5600 5604 5606 5610 5614
5550 5552 5555 5557 5557 5557 5556 5556 5555 5558 5560 5560 5562 5564 5565 5565 5566 5568 5572 5574 5576 5577 5579 5580 5582 5583 5584 5584 5584 5583 5583 5582 5582 5581 5581 5583 5584 5585 5587 5590 5593 5595 5598 5602
5551 5551 5552 5554 5556 5556 5555 5554 5556 5556 5557 5558 5557 5559 5560 5561 5563 5566 5568 5571 5573 5574 5575 5576 5576 5577 5577 5577 5576 5575 5574 5573 5572 5572 5572 5572 5574 5573 5575 5577 5580 5582 5586 5589
5553 5552 5552 5553 5553 5554 5554 5553 5555 5556 5556 5555 5556 5557 5559 5560 5561 5563 5565 5566 5568 5569 5570 5571 5571 5571 5571 5569 5567 5565 5563 5562 5561 5560 5560 5559 5559 5559 5561 5563 5565 5567 5568 5573
5552 5552 5551 5551 5552 5553 5554 5553 5553 5554 5559 5554 5555 5555 5556 5558 5558 5559 5560 5562 5563 5563 5564 5564 5563 5563 5562 5559 5558 5557 5554 5552 5550 5549 5547 5545 5545 5545 5545 5548 5550 5553 5557 5560
5551 5549 5549 5550 5549 5552 5552 5552 5553 5552 5551 5552 5553 5553 5554 5554 5553 5554 5555 5555 5555 5556 5557 5557 5556 5554 5554 5554 5552 5550 5547 5543 5540 5538 5536 5533 5532 5532 5532 5534 5538 5545 5547 5547
5550 5549 5549 5549 5549 5548 5547 5548 5548 5548 5548 5548 5549 5549 5550 5551 5549 5550 5552 5552 5552 5551 5551 5550 5550 5550 5549 5548 5546 5543 5540 5537 5533 5529 5526 5524 5521 5522 5522 5525 5531 5536 5539 5545
5546 5546 5546 5546 5545 5544 5545 5546 5546 5545 5545 5544 5543 5544 5544 5545 5545 5546 5546 5547 5547 5548 5547 5546 5545 5545 5544 5542 5540 5537 5535 5532 5529 5524 5519 5515 5512 5511 5514 5518 5524 5528 5531 5537
5543 5542 5543 5543 5542 5541 5540 5540 5540 5540 5539 5539 5538 5539 5539 5538 5539 5540 5540 5541 5542 5541 5541 5540 5540 5539 5537 5536 5533 5531 5529 5527 5525 5521 5516 5511 5508 5505 5507 5510 5516 5520 5527 5533
5536 5538 5539 5539 5538 5537 5536 5535 5534 5534 5534 5534 5534 5533 5533 5533 5532 5533 5534 5535 5535 5535 5534 5534 5533 5532 5530 5529 5527 5525 5523 5521 5519 5517 5513 5511 5508 5504 5502 5503 5507 5514 5519 5524